This is the latest recevied weather packets stored in our database for station/object W2GLD-13. If no packets are shown the sender has not sent any weather packets the latest 10 day(s).
| Time | Temp. | Humidity | Pressure | Rain* | Wind** | Luminosity | Snow |
|---|---|---|---|---|---|---|---|
| 1777947306 | 18.89° C | 67% | 997.7 hPa | 0 mm | - | - | - |
| 1777946406 | 18.33° C | 69% | 997.4 hPa | 0 mm | - | - | - |
| 1777945506 | 18.33° C | 69% | 997.4 hPa | 0 mm | - | - | - |
| 1777944606 | 18.33° C | 69% | 997.4 hPa | 0 mm | - | - | - |
| 1777943705 | 18.33° C | 69% | 997.4 hPa | 0 mm | - | - | - |
| 1777942805 | 21.11° C | 69% | 997 hPa | 0 mm | - | - | - |
| 1777941905 | 21.11° C | 69% | 997 hPa | 0 mm | - | - | - |
| 1777941005 | 21.11° C | 69% | 997 hPa | 0 mm | - | - | - |
| 1777940105 | 21.11° C | 69% | 997 hPa | 0 mm | - | - | - |
| 1777939206 | 24.44° C | 46% | 996.5 hPa | 0 mm | - | - | - |
| 1777938306 | 24.44° C | 46% | 996.5 hPa | 0 mm | - | - | - |
| 1777937406 | 24.44° C | 46% | 996.5 hPa | 0 mm | - | - | - |
| 1777936506 | 24.44° C | 46% | 996.5 hPa | 0 mm | - | - | - |
| 1777935606 | 24.44° C | 42% | 997.2 hPa | 0 mm | - | - | - |
| 1777934705 | 24.44° C | 42% | 997.2 hPa | 0 mm | - | - | - |
| 1777933805 | 24.44° C | 42% | 997.2 hPa | 0 mm | - | - | - |
| 1777932905 | 24.44° C | 42% | 997.2 hPa | 0 mm | - | - | - |
| 1777932005 | 25° C | 37% | 997.9 hPa | 0 mm | - | - | - |
| 1777931105 | 25° C | 37% | 997.9 hPa | 0 mm | - | - | - |
| 1777930206 | 25° C | 37% | 997.9 hPa | 0 mm | - | - | - |
| 1777929306 | 25° C | 37% | 997.9 hPa | 0 mm | - | - | - |
| 1777928406 | 24.44° C | 32% | 998.5 hPa | 0 mm | - | - | - |
| 1777927506 | 24.44° C | 32% | 998.5 hPa | 0 mm | - | - | - |
| 1777926605 | 24.44° C | 32% | 998.5 hPa | 0 mm | - | - | - |
| 1777925705 | 24.44° C | 32% | 998.5 hPa | 0 mm | - | - | - |
* Rain latest hour (hover to see other rain measurements)
** Current wind speed in m/s (hover to see current wind gust speed)